Flight Information

DEPARTURE
EL PASO, TX
Elevation:
3961
Runways:
8R/26L - 9025x150 - ASPH-CONC-F
8L/26R - 5499x75 - CONC-G
4/22 - 12020x150 - ASPH-CONC-F
Active PE Departure:
22 - 26L - 26R
Current PE ATIS:
K
Altimeter:
30.44
Remarks:
R N P APPROACHES AVAILABLE UPON PILOT REQUEST.
ATIS:
120.0 915-772-9412
Clearance Delivery:
125
Ground:
121.9
Tower:
EL PASO TOWER 118.3
DESTINATION
,
Elevation:
TPA:
1000 (est.)


6231.6 NM81° True-11° Var70° HDG

Flight Plan:
(click to file on line)

1. Type
2. Aircraft Identification
3. Aircraft Type / Special Equipment
4. True Airspeed
kts
5. Departure Airport
(ICAO code)
6. Arriving Airport
(ICAO code)
7. Cruising Altitude
ft
8. Alternate Airport
(ICAO code)
9. Route of Flight
10. Remarks


00:00:00 Departure ATIS: Destination ATIS:

Clearance Limit:
Route:
Altitude: Expect in minutes
Frequency:
Transponder: (7500 Hijack / 7600 Lost Comms / 7700 Emergency)


KELP 282151Z 00000KT 10SM FEW250 10/M08 A3044 RMK AO2 SLP290 T01001078
Time: 2022-01-28T21:51:00Z
1643407061
Winds: calm
Visibility: 10.0 sm
Clouds (AGL): FEW 25000
Temperature: 10.0 C
Dew Point: -7.8 C
Pressure: 30.43996 in Hgbr


Notes:

Data extracted from FAA Digital Chart Supplement. Effective: 0901Z Thursday, DEC 2, 2021 to 0901Z Thursday, JAN 27, 2022
Current ATIS data is provided courtisy of PilotEdge.